Regional Weather Roundup
Issued by NWS

Home | Current Version | Previous Version | Graphics & Text | Print | Product List | Glossary On
Versions: 1 2 3 4 5 6 7 8 9 10 11 12 13 14 15 16 17 18 19 20 21 22 23 24 25 26 27 28 29 30 31 32 33 34 35 36 37 38 39 40 41 42 43 44 45 46 47 48 49 50
000
ASUS43 KMPX 270001
RWRMN
WEATHER ROUNDUP FOR MINNESOTA
NATIONAL WEATHER SERVICE TWIN CITIES/CHANHASSEN MN
700 PM CDT MON JUN 26 2017


NOTE: "FAIR" INDICATES FEW OR NO CLOUDS BELOW 12,000 FEET WITH NO
SIGNIFICANT WEATHER AND/OR OBSTRUCTIONS TO VISIBILITY. N/A MEANS
CURRENT SKY AND/OR WEATHER CONDITIONS ARE NOT AVAILABLE.

MNZ060>063-068>070-270100-
   Twin Cities Metro

CITY           SKY/WX    TMP DP  RH WIND       PRES   REMARKS
TWIN CITIES    MOSUNNY   70  42  36 N6        30.10F
6HR MIN TEMP:  66; 6HR MAX TEMP:  73;

ST PAUL        MOSUNNY   69  44  40 N8        30.10F
CRYSTAL        PTSUNNY   68  39  34 N8        30.09F
BLAINE         MOSUNNY   72  39  30 NW7       30.10F
LAKEVILLE      PTSUNNY   66  45  45 NE6       30.11S
EDEN PRAIRIE   SUNNY     71  42  35 N8        30.09F
6HR MIN TEMP:  67; 6HR MAX TEMP:  74;

SOUTH ST PAUL  SUNNY     69  42  37 N9        30.10F
LAKE ELMO      FAIR      68  46  45 N5        30.11F
$$
MNZ001>005-007-008-013>017-022>024-027-028-270100-
   Northwest Minnesota

CITY           SKY/WX    TMP DP  RH WIND       PRES   REMARKS
BEMIDJI        MOSUNNY   68  38  32 NW13      30.09S
HALLOCK        SUNNY     73  36  25 W9        30.05F
ROSEAU         SUNNY     70  46  43 NW10      30.05F
WARROAD        MOSUNNY   72  48  43 W8        30.05F
CROOKSTON      SUNNY     72  41  33 W5        30.08F
FOSSTON        MOSUNNY   70  39  32 W6        30.10F
DETROIT LAKES  SUNNY     70  36  28 NW9G17    30.12F
MOORHEAD       SUNNY     72  36  26 W3        30.10F
PARK RAPIDS    SUNNY     70  36  28 NW12      30.10F
MAHNOMEN       FAIR      69  39  33 NW9       30.10F
$$
MNZ006-009>011-018-025>026-270100-
   North Central Minnesota

CITY           SKY/WX    TMP DP  RH WIND       PRES   REMARKS
BAUDETTE       SUNNY     69  46  43 NW8       30.04F
FLAG ISLAND    SUNNY     68  45  42 N7        30.02F
INTL FALLS     PTSUNNY   69  43  38 NW12      30.02F
6HR MIN TEMP:  60; 6HR MAX TEMP:  71; 6HR PCP:  0.01;

WASKISH        CLOUDY    66  48  52 W8        30.06S
BIG FORK       MOSUNNY   68  43  40 W6        30.05F
LONGVILLE      SUNNY     66  41  39 NW6       30.08F
GRAND RAPIDS   MOSUNNY   66  40  38 NW10      30.08F
CRANE LAKE     MOSUNNY   66  43  42 NW7       30.04S
ORR            MOSUNNY   66  43  42 NW6       30.01F
COOK           SUNNY     66  46  48 NW6       30.04S
WALKER         FAIR      66  40  39 NW7       30.08F
$$
MNZ012-019>021-037-270100-
   Northeast Minnesota

CITY           SKY/WX    TMP DP  RH WIND       PRES   REMARKS
DULUTH         PTSUNNY   63  44  50 NW8       30.05F
6HR MIN TEMP:  54; 6HR MAX TEMP:  68; 6HR PCP:  0.02;

ELY            MOSUNNY   63  39  42 NW10      30.03S
HIBBING        MOSUNNY   64  43  46 NW10G18   30.04F
EVELETH        MOSUNNY   64  39  39 W5        30.05F
DULUTH HARBOR  PTSUNNY   68  48  49 NW3       30.05F
TWO HARBORS    HVY RAIN  61  54  77 NW9       30.05R
SILVER BAY     PTSUNNY   66  48  52 CALM      30.01S
GRAND MARAIS     N/A     50  44  80 CALM      29.99F
G MARAIS ARPRT MOSUNNY   61  39  44 NW3       30.01S
$$
MNZ029>031-032-039>041-046>048-054>057-064-270100-
   West Central Minnesota

CITY           SKY/WX    TMP DP  RH WIND       PRES   REMARKS
FERGUS FALLS   SUNNY     70  39  32 NW7       30.09F
WHEATON        SUNNY     70  37  30 NW3       30.14F
MORRIS         SUNNY     72  39  30 NW7       30.12F
ALEXANDRIA     SUNNY     68  40  35 NW10      30.14F
ELBOW LAKE     PTSUNNY   69  42  38 NW7       30.13F
WADENA         SUNNY     66  43  42 NW6       30.11F
GLENWOOD       SUNNY     68  39  34 W8        30.13F
APPLETON       SUNNY     72  36  26 N6        30.13S
BENSON         SUNNY     70  37  30 N6        30.14F
ORTONVILLE     MOSUNNY   72  36  26 NE7       30.13F
MADISON        SUNNY     72  45  37 NE5       30.14S
WILLMAR        FAIR      70  39  32 NW8       30.14S
$$
MNZ033>034-036-042>043-049>051-058-059-270100-
   Central Minnesota

CITY           SKY/WX    TMP DP  RH WIND       PRES   REMARKS
ST CLOUD       MOSUNNY   70  42  36 N9        30.10F
6HR MIN TEMP:  67; 6HR MAX TEMP:  73;

SAUK CENTRE    FAIR      69  40  35 NW9       30.12S
PAYNESVILLE    SUNNY     69  40  34 NW6       30.12F
AITKIN         SUNNY     66  43  42 NW6       30.07S
PINE RIVER     SUNNY     68  45  42 NW7       30.12F
BRAINERD       MOSUNNY   69  39  33 NW10      30.09F
STAPLES        MOSUNNY   70  36  28 NW10      30.11S
LONG PRAIRIE   FAIR      68  41  37 W10       30.12F
LITTLE FALLS   PTSUNNY   68  37  32 NW6       30.11S
LITCHFIELD     SUNNY     72  43  35 NW9       30.12F
BUFFALO        MOSUNNY   70  38  31 N5        30.11F
MAPLE LAKE     PTSUNNY   71  46  39 N9        30.11F
HUTCHINSON     SUNNY     70  42  36 NW9       30.13S
$$
MNZ037-044-045-052-053-270100-
   East Central Minnesota

CITY           SKY/WX    TMP DP  RH WIND       PRES   REMARKS
PRINCETON      MOSUNNY   70  45  40 NW3       30.10F
MORA           SUNNY     64  41  42 NW9G18    30.10F
CAMBRIDGE      SUNNY     70  48  46 NW6       30.08F
RUSH CITY      MOSUNNY   66  45  45 NW5       30.09F
MOOSE LAKE     PTSUNNY   64  43  45 NW3       30.05F
HINCKLEY       FAIR      68  46  45 W5        30.08F
CLOQUET        MOSUNNY   66  39  37 W6        30.06S
MCGREGOR       MOSUNNY   68  39  34 NW12G18   30.08S
$$
MNZ071>073-080-081-089-090-097-098-270100-
   Southwest Minnesota

CITY           SKY/WX    TMP DP  RH WIND       PRES   REMARKS
MONTEVIDEO     PTSUNNY   72  41  33 N5        30.14S
GRANITE FALLS  SUNNY     71  42  35 NW3       30.15S
CANBY          SUNNY     71  39  31 CALM      30.15F
MARSHALL       SUNNY     69  39  33 NE8       30.14F
REDWOOD FALLS  SUNNY     68  39  34 NW6       30.13S
OLIVIA         MOSUNNY   70  41  35 N5        30.12F
PIPESTONE      SUNNY     70  36  28 E3        30.15S
WINDOM         SUNNY     68  37  32 N5        30.14S
WORTHINGTON    SUNNY     68  38  33 N10       30.16S
JACKSON        SUNNY     68  37  32 N6        30.15S
TRACY          SUNNY     69  42  36 N9        30.15S
SLAYTON        SUNNY     67  38  34 CALM      30.16S
$$
MNZ065>067-074>077-082>085-091>093-270100-
   South Central Minnesota

CITY           SKY/WX    TMP DP  RH WIND       PRES   REMARKS
MANKATO        SUNNY     69  41  36 NW8       30.12F
NEW ULM        SUNNY     70  37  30 NE3       30.12F
ST JAMES       MOSUNNY   66  39  37 NW6       30.14S
FAIRMONT       MOSUNNY   69  42  37 N6        30.14S
GLENCOE        SUNNY     70  45  40 N5        30.11S
FARIBAULT      MOSUNNY   70  41  35 NW8       30.11F
OWATONNA       MOSUNNY   68  43  40 NW7       30.12S
WASECA         MOSUNNY   68  41  37 NW9       30.13S
ALBERT LEA     SUNNY     68  36  30 NW9       30.12F
$$
MNZ078>079-086>088-094>096-270100-
   Southeast Minnesota

CITY           SKY/WX    TMP DP  RH WIND       PRES   REMARKS
ROCHESTER      MOSUNNY   65  44  46 N9        30.11S
6HR MIN TEMP:  62; 6HR MAX TEMP:  68;

RED WING       MOSUNNY   66  39  37 N5        30.09F
STANTON        PTSUNNY   67  47  48 E6        30.10S
DODGE CENTER   MOSUNNY   66  39  37 NW8       30.12S
WINONA         PTSUNNY   70  45  40 NW12      30.09S
AUSTIN         MOSUNNY   66  39  37 N9        30.11F
PRESTON        SUNNY     64  42  43 N9        30.11S
$$
ABBREVIATIONS USED IN REMARKS
   TC - TEMPERATURES IN CELSIUS
  WCI - WIND CHILL INDEX
   HX - HEAT INDEX
  VSB - VISIBILITY
$$



USA.gov is the U.S. government's official web portal to all federal, state and local government web resources and services.